This is the latest recevied weather packets stored in our database for station/object K7KAZ. If no packets are shown the sender has not sent any weather packets the latest 10 day(s).
| Time | Temp. | Humidity | Pressure | Rain* | Wind** | Luminosity | Snow |
|---|---|---|---|---|---|---|---|
| 1777531849 | 23.33° C | 21% | 1014.4 hPa | 0 mm | - | 0 W/m² | - |
| 1777531545 | 23.33° C | 21% | 1014.4 hPa | 0 mm | - | 0 W/m² | - |
| 1777531243 | 23.33° C | 21% | 1014.3 hPa | 0 mm | - | 0 W/m² | - |
| 1777530941 | 23.33° C | 20% | 1014.3 hPa | 0 mm | - | 0 W/m² | - |
| 1777530638 | 22.78° C | 20% | 1014.5 hPa | 0 mm | - | 0 W/m² | - |
| 1777530335 | 23.33° C | 20% | 1014.4 hPa | 0 mm | - | 0 W/m² | - |
| 1777530031 | 23.33° C | 20% | 1014.4 hPa | 0 mm | - | 0 W/m² | - |
| 1777529729 | 23.89° C | 20% | 1014.4 hPa | 0 mm | - | 0 W/m² | - |
| 1777529425 | 23.89° C | 19% | 1014.6 hPa | 0 mm | - | 0 W/m² | - |
| 1777529122 | 24.44° C | 19% | 1014.8 hPa | 0 mm | - | 0 W/m² | - |
| 1777528817 | 23.89° C | 19% | 1014.6 hPa | 0 mm | - | 0 W/m² | - |
| 1777528514 | 24.44° C | 19% | 1014.7 hPa | 0 mm | - | 0 W/m² | - |
| 1777528213 | 24.44° C | 19% | 1014.5 hPa | 0 mm | - | 0 W/m² | - |
| 1777527909 | 24.44° C | 19% | 1014.7 hPa | 0 mm | - | 0 W/m² | - |
| 1777527605 | 24.44° C | 20% | 1014.8 hPa | 0 mm | - | 0 W/m² | - |
| 1777527300 | 25° C | 19% | 1014.6 hPa | 0 mm | - | 0 W/m² | - |
| 1777526996 | 25° C | 18% | 1014.6 hPa | 0 mm | - | 0 W/m² | - |
| 1777526692 | 25.56° C | 17% | 1014.6 hPa | 0 mm | - | 0 W/m² | - |
| 1777526387 | 25.56° C | 17% | 1014.7 hPa | 0 mm | - | 0 W/m² | - |
| 1777526083 | 25.56° C | 17% | 1014.6 hPa | 0 mm | - | 0 W/m² | - |
| 1777525779 | 25.56° C | 17% | 1014.4 hPa | 0 mm | - | 0 W/m² | - |
| 1777525477 | 25.56° C | 17% | 1014.7 hPa | 0 mm | - | 0 W/m² | - |
| 1777525173 | 25.56° C | 17% | 1014.7 hPa | 0 mm | - | 0 W/m² | - |
| 1777524869 | 25.56° C | 17% | 1014.8 hPa | 0 mm | - | 0 W/m² | - |
| 1777524567 | 25.56° C | 17% | 1014.8 hPa | 0 mm | - | 0 W/m² | - |
* Rain latest hour (hover to see other rain measurements)
** Current wind speed in m/s (hover to see current wind gust speed)